Showing default

SJ-7, 28737

Orbit data source: Space-Track

SJ-7, 28737 is a payload satellite owned by CASC (CN) in SSO that was launched on Tue, 05 Jul 2005 UTC via a CHANG ZHENG 2D launch vehicle from the Jiuquan Satellite Launch Center, China (JSC). Payload-class satellites include a variety of spacecraft equipped with specific instruments for various scientific and technological missions. These include communications satellites like Starlink; space stations such as the ISS; scientific satellites like the Hubble; Earth observation satellites from companies like Planet Labs, Umbra, and HawkEye 360; GPS; miniature CubeSats for education and research; and military/defense satellites.

Loading next visibility...
Identifier
28737, 2005-024A
Orbit
SSO
Country
Flag of CNCN / PRC
Related business
Manufacturer
SAST
Mission
Operational Civil Technology
Bus & Motor
FY-1?, Unknown motor
Mass
~1,000 kg wet, ~1,000 kg dry
Launch date (UTC)
2005-07-05 (21 years ago)
Launch vehicle
CHANG ZHENG 2D
Launch site
Jiuquan Satellite Launch Center, China (JSC)
Object type
Payload
Rocket body
Debris
Shape & HBR
Box + 1 Pan, 1.7 m
Radar Cross Section
6.000 m², Large (>1 m²)

Expand to show TLE details & history
Last TLE update: 21 hours ago

TLE from 21 hours ago
0 SJ-7
1 28737U 05024A   26258.08761980  .00006934  00000-0  29989-3 0  9992
2 28737  97.7228 290.6609 0016842  81.0085 279.3056 15.22662956161700
Epoch: 2026-09-15T02:06Z
TLE epoch observation values (Epoch: 2026-09-15T02:06:10.350Z)
Latitude
-0.00004°
Longitude
-94.94081°
Altitude
499.043 km
Speed
7.616 km/s
True Right ascension
19h 22m 38s
True Declination
0° 00' 00"
Sunlit
Object was in full shadow at epoch
Visualization orbit readout
Latitude
Unknown
Longitude
Unknown
Altitude
Unknown
Speed
Unknown
Apparent Right ascension
Unknown
Apparent Declination
Unknown
Sunlit
N/A
Visualization observer readout
Local Sidereal Time
15:24:46
Azimuth
Unknown
Elevation
Unknown
Doppler factor
Unknown
Orbital elements
Apogee altitude
506.364 km
Perigee altitude
483.213 km
Semi-major axis
6,872.925 km
Eccentricity
0.00168
Inclination
97.7228°
RAAN
290.6609°
Arg. of periapsis
81.0085°
True anomaly
279.11508°
Mean anomaly
279.3056°
Eccentric anomaly
279.21035°
Mean motion
3.80917 °/min
Orbital period
94.51 mins
BSTAR
0.00029989
Loading maneuver chart data...
Computing Atmospheric mass density...
Loading historical data...
Loading historical data...
Loading historical data...
Loading historical data...
Loading historical data...
Loading historical data...
Loading historical data...

Documentation

Showing up to 5 results
|